Terug naar catalogus

COSMOS 2251 DEB

ActiefLEO
NORAD 33992·DEBRIS·🇷🇺 Russia

Gelanceerd Jun 16, 1993 vanaf Plesetsk Cosmodrome

Loading…

Volgende Passages (komende 24 uur)

TLE

VersSource: Space-Track

Epoch: Sep 14, 2026, 04:56 UTC

1 33992U 93036GB  26257.20569149  .00001876  00000-0  32498-3 0  9996
2 33992  74.0226 165.4415 0053903 214.8076 297.7364 14.68132518931654

Volg COSMOS 2251 DEB in realtime met AllMySat

Download on the App Store